Torna al catalogo

SL-16 DEB

AttivoLEO
NORAD 22375·DEBRIS·🇷🇺 Russia

Lanciato Dec 25, 1992 da Baikonur Cosmodrome

Loading…

Prossimi Passaggi (prossime 24 ore)

TLE

AggiornatoSource: Space-Track

Epoca: Sep 14, 2026, 13:38 UTC

1 22375U 92093BQ  26257.56868236  .00000060  00000-0  69062-4 0  9991
2 22375  70.8173 320.1266 0091511 282.1978 146.6491 14.01580203721590

Traccia SL-16 DEB in tempo reale con AllMySat

Download on the App Store